FW3928 Weather Reports


time (UTC)temp
F
wind
direction
speed
knots
gust
knots
rain 1hr
in
rain 24hr
in
rain mn
in
humidity
%
barometer
mb
20260508203013 55 348 4.3 10.4 0.00 0.44 0.00 65 1002.2
20260508201513 55 48 3.5 7.8 0.00 0.44 0.00 67 1002.0
20260508200012 55 303 2.6 10.4 0.00 0.77 0.00 65 1001.6
20260508194511 55 24 1.7 13.0 0.00 0.77 0.00 66 1001.5
20260508193010 55 30 5.2 10.4 0.00 0.77 0.00 70 1001.3
20260508191510 54 62 6.1 11.3 0.00 0.77 0.00 67 1001.4
20260508190009 54 50 5.2 11.3 0.00 0.86 0.00 69 1001.2
20260508184509 55 25 7.0 12.2 0.00 0.86 0.00 69 1000.9
20260508183009 56 63 6.1 10.4 0.00 0.86 0.00 64 1001.3
20260508181503 55 29 2.6 9.6 0.00 0.86 0.00 66 1001.4
20260508180101 55 42 5.2 10.4 0.00 0.86 0.00 66 1001.7
20260508174603 54 34 5.2 9.6 0.00 0.86 0.00 69 1001.6
20260508173055 54 6 6.1 10.4 0.00 0.86 0.00 69 1001.7
20260508171551 53 348 5.2 10.4 0.00 0.86 0.00 77 1001.7
20260508170051 51 343 4.3 9.6 0.00 0.86 0.00 78 1001.9
20260508164551 51 81 3.5 7.8 0.00 0.86 0.00 77 1001.9
20260508163050 51 48 4.3 9.6 0.00 0.86 0.00 78 1001.9
20260508161549 50 22 4.3 9.6 0.00 0.86 0.00 78 1001.8
20260508160109 50 358 4.3 8.7 0.00 0.86 0.00 78 1001.9
20260508154547 51 331 2.6 8.7 0.00 0.86 0.00 78 1002.1
20260508153048 51 348 1.7 13.0 0.00 0.86 0.00 78 1001.5
20260508151550 51 23 4.3 11.3 0.00 0.86 0.00 78 1001.9
20260508150045 52 20 2.6 9.6 0.00 0.86 0.00 80 1001.8
20260508144544 52 8 3.5 10.4 0.00 0.86 0.00 83 1002.1
20260508143050 50 27 0.9 10.4 0.00 0.86 0.00 84 1002.0
20260508141548 49 31 4.3 10.4 0.00 0.86 0.00 84 1002.1
20260508140036 49 14 6.1 13.0 0.00 0.86 0.00 85 1002.4
20260508134535 49 6 3.5 7.8 0.00 0.86 0.00 87 1002.5
20260508133132 49 21 5.2 9.6 0.00 0.86 0.00 87 1002.7
20260508131531 49 342 3.5 9.6 0.00 0.86 0.00 90 1002.5
20260508130028 49 343 2.6 7.0 0.00 0.86 0.00 93 1002.3
20260508124525 48 291 2.6 7.8 0.00 0.86 0.00 94 1002.2
20260508123025 48 40 2.6 9.6 0.00 0.86 0.00 96 1002.5
20260508121548 48 325 2.6 12.2 0.00 0.86 0.00 97 1002.5
20260508120019 47 19 2.6 9.6 0.00 0.86 0.00 99 1002.5
20260508114517 45 13 1.7 8.7 0.00 0.86 0.00 99 1002.6
20260508113017 45 2 1.7 3.5 0.00 0.86 0.00 99 1002.6
20260508111516 43 353 0.9 3.5 0.00 0.86 0.00 98 1002.6
20260508110016 43 358 0.9 3.5 0.00 0.86 0.00 98 1002.5
20260508104515 42 358 0.0 3.5 0.00 0.86 0.00 98 1002.9
20260508103016 42 353 0.0 1.7 0.00 0.86 0.00 98 1003.0
20260508101513 42 353 0.9 1.7 0.00 0.86 0.00 98 1002.7
20260508100012 42 353 0.0 0.0 0.00 0.86 0.00 98 1002.7
20260508094510 42 353 0.0 3.5 0.00 0.86 0.00 98 1002.4
20260508093013 43 348 0.9 2.6 0.00 0.86 0.00 98 1002.5
20260508091512 43 348 0.9 3.5 0.00 0.86 0.00 98 1002.5
20260508090013 43 358 0.0 3.5 0.00 0.86 0.00 98 1002.5
20260508084505 43 348 2.6 5.2 0.00 0.86 0.00 98 1002.4
20260508083013 43 17 1.7 5.2 0.00 0.86 0.00 98 1002.3
20260508081503 44 19 1.7 8.7 0.00 0.86 0.00 98 1002.1
20260508080002 44 24 3.5 7.8 0.00 0.86 0.00 98 1002.0
20260508074601 44 17 4.3 10.4 0.00 0.86 0.00 98 1001.8
20260508073104 45 39 2.6 7.8 0.00 0.86 0.00 98 1002.0
20260508071558 45 25 2.6 5.2 0.00 0.86 0.00 98 1002.1
20260508070100 46 8 5.2 9.6 0.00 0.86 0.00 98 1002.2
20260508064609 46 22 2.6 7.0 0.00 0.86 0.00 99 1001.9
20260508063055 45 235 0.0 0.0 0.00 0.86 0.00 98 1002.0
20260508061552 45 235 0.0 0.0 0.00 0.86 0.00 98 1001.9
20260508060052 45 235 0.0 0.0 0.00 0.86 0.00 98 1001.6
20260508054555 45 235 0.0 0.0 0.00 0.86 0.00 98 1001.8
20260508053050 45 235 0.0 0.0 0.00 0.86 0.00 98 1002.0
20260508051549 45 235 0.0 0.0 0.00 0.86 0.00 98 1001.7
20260508050051 45 235 0.0 0.0 0.00 0.86 0.00 98 1001.9
20260508044547 45 235 0.0 0.0 0.00 0.86 0.00 98 1001.9
20260508043047 44 235 0.0 0.9 0.00 0.86 0.00 98 1001.8
20260508041545 44 235 0.0 0.0 0.00 0.86 0.00 98 1002.1
20260508040043 44 235 0.0 0.0 0.00 0.86 0.00 98 1002.1
20260508034542 44 235 0.0 0.0 0.00 0.86 0.00 98 1002.4
20260508033141 44 235 0.9 1.7 0.00 0.86 0.00 98 1002.5
20260508031538 44 235 0.9 2.6 0.00 0.86 0.00 98 1002.4
20260508030035 43 235 1.7 3.5 0.00 0.86 0.86 98 1002.6
20260508024541 43 235 0.9 3.5 0.00 0.86 0.86 98 1002.4
20260508023037 43 235 0.9 3.5 0.00 0.86 0.86 98 1002.3
20260508021535 43 235 0.9 3.5 0.00 0.86 0.86 98 1002.3
20260508020033 43 255 1.7 6.1 0.00 0.86 0.86 98 1002.4
20260508014534 44 247 3.5 7.0 0.00 0.86 0.86 98 1002.8
20260508013031 44 262 0.9 7.0 0.00 0.86 0.86 98 1002.4
20260508011541 44 229 2.6 7.0 0.00 0.86 0.86 98 1002.4
20260508010032 44 231 3.5 8.7 0.00 0.86 0.86 98 1002.8
20260508004525 45 228 5.2 7.8 0.00 0.86 0.86 98 1003.2
20260508003034 45 229 4.3 8.7 0.00 0.86 0.86 97 1002.7
20260508001522 45 200 2.6 8.7 0.01 0.86 0.86 98 1003.1
20260508000021 45 200 4.3 9.6 0.01 0.86 0.86 98 1003.2
20260507234520 46 193 6.1 12.2 0.01 0.86 0.86 97 1003.0
20260507233020 46 214 5.2 8.7 0.01 0.86 0.86 98 1003.7
20260507231518 46 198 6.1 10.4 0.00 0.85 0.85 97 1003.6
20260507230017 46 188 4.3 12.2 0.00 0.85 0.85 97 1003.7
20260507224518 46 208 2.6 9.6 0.00 0.85 0.85 97 1003.5
20260507223017 46 182 5.2 12.2 0.01 0.85 0.85 97 1003.6
20260507221517 47 192 7.0 12.2 0.02 0.85 0.85 97 1003.8
20260507220015 46 162 6.1 13.0 0.09 0.85 0.85 97 1003.7
20260507214514 46 204 7.8 15.6 0.17 0.85 0.85 97 1003.5
20260507213015 46 185 6.1 13.9 0.23 0.84 0.84 97 1003.9
20260507211510 46 180 5.2 9.6 0.30 0.83 0.83 97 1004.3
20260507210008 46 187 7.8 13.0 0.35 0.76 0.76 97 1004.6
20260507204507 46 229 6.1 12.2 0.42 0.68 0.68 97 1005.1